Total_Precipitation_Accumulation
1.63 1.63 1.56 1.60 1.55 1.77 2.07 2.13 2.04 2.21 2.21 1.98 1.69 1.51 1.39 1.25 1.10 1.15 1.30 1.24 1.14 1.21 1.46 1.54 1.42 1.34 1.25 1.06 0.92 0.88 0.85 0.79 0.75 0.61 0.48 0.45 0.51 0.54 0.48 0.41 0.36 0.32 0.31
2.05 2.08 1.95 1.89 1.79 1.84 2.02 2.15 2.18 2.60 2.46 2.32 1.88 1.66 1.58 1.52 1.41 1.34 1.41 1.51 1.27 1.14 1.22 1.45 1.59 1.54 1.50 1.32 1.13 1.00 0.90 0.82 0.72 0.54 0.43 0.39 0.46 0.55 0.53 0.47 0.39 0.32 0.24
2.14 2.22 2.22 2.07 2.04 2.04 2.16 2.17 2.34 2.59 2.30 2.18 1.89 1.77 1.67 1.53 1.39 1.41 1.55 1.66 1.51 1.29 1.12 1.20 1.44 1.56 1.63 1.62 1.48 1.26 1.03 0.87 0.76 0.58 0.43 0.38 0.42 0.50 0.50 0.51 0.46 0.34 0.23
2.20 2.28 2.09 1.97 2.24 2.32 2.36 2.45 2.52 2.54 2.40 2.32 2.11 1.78 1.65 1.59 1.27 1.27 1.31 1.30 1.37 1.22 1.28 1.37 1.45 1.50 1.63 1.73 1.75 1.68 1.41 1.09 0.90 0.74 0.57 0.46 0.49 0.52 0.47 0.46 0.45 0.36 0.25
2.03 2.18 2.01 2.07 2.31 2.38 2.37 2.20 2.52 2.50 2.43 2.34 1.97 1.68 1.44 1.27 1.15 1.02 0.99 0.92 1.02 1.06 1.13 1.25 1.35 1.35 1.55 1.80 1.91 1.97 1.88 1.58 1.24 1.02 0.90 0.74 0.64 0.56 0.50 0.48 0.44 0.38 0.29
2.03 2.18 2.06 2.14 2.29 2.36 2.31 2.32 2.46 2.48 2.32 2.27 1.81 1.49 1.28 1.03 1.01 0.95 0.80 0.82 0.84 0.79 0.83 1.00 1.26 1.09 1.38 1.64 1.76 2.01 2.15 2.03 1.70 1.40 1.24 1.11 0.99 0.82 0.63 0.57 0.55 0.49 0.39
2.07 2.25 2.14 2.29 2.30 2.15 2.14 2.30 2.44 2.30 2.08 2.25 2.01 1.42 1.04 0.84 0.85 0.81 0.80 0.87 0.82 0.79 0.87 1.09 1.21 1.16 1.11 1.21 1.26 1.51 1.94 2.19 2.09 1.79 1.49 1.33 1.30 1.24 0.91 0.78 0.76 0.69 0.59
1.92 1.93 1.98 1.97 2.02 2.07 2.09 2.15 2.31 2.12 1.79 2.01 1.98 1.69 1.12 0.87 0.76 0.67 0.79 0.81 0.80 0.90 0.94 1.08 1.32 1.44 1.32 1.41 1.18 1.11 1.55 2.06 2.26 2.23 1.94 1.69 1.60 1.54 1.26 1.16 1.00 0.82 0.71
1.59 1.60 1.62 1.76 1.99 2.09 2.04 2.07 2.10 1.97 1.66 1.68 1.83 1.90 1.39 1.01 0.80 0.55 0.60 0.72 0.88 1.04 1.03 1.21 1.33 1.45 1.52 1.67 1.68 1.47 1.34 1.46 1.86 2.31 2.30 2.02 1.75 1.57 1.59 1.61 1.41 1.06 0.81
1.43 1.40 1.42 1.48 1.55 1.64 1.67 1.60 1.73 1.84 1.79 1.60 1.71 1.76 1.61 1.43 1.24 0.81 0.63 0.67 0.85 0.96 1.07 1.09 1.11 1.20 1.48 1.81 1.91 1.69 1.45 1.27 1.37 1.97 2.40 2.37 2.03 1.75 1.76 1.88 1.98 1.63 1.08
1.29 1.28 1.23 1.22 1.19 1.25 1.37 1.40 1.51 1.56 1.60 1.58 1.62 1.69 1.66 1.62 1.58 1.37 0.99 0.93 0.92 0.83 0.91 0.99 1.03 1.08 1.35 1.62 1.75 1.66 1.64 1.44 1.38 1.50 1.82 2.11 2.13 2.02 1.91 2.01 2.32 2.31 1.87
1.04 1.03 1.06 1.08 1.07 1.12 1.21 1.30 1.37 1.33 1.42 1.48 1.51 1.59 1.65 1.63 1.66 1.67 1.34 1.19 1.08 0.92 0.94 0.91 0.91 0.98 1.19 1.38 1.33 1.43 1.44 1.30 1.22 1.27 1.39 1.64 1.76 1.85 1.91 2.08 2.41 2.64 2.59
0.74 0.77 0.78 0.87 0.92 1.01 1.04 1.05 1.14 1.23 1.37 1.45 1.46 1.53 1.57 1.55 1.54 1.61 1.55 1.30 1.18 1.05 1.08 1.02 0.91 0.94 0.96 1.23 1.23 1.14 0.99 0.91 0.89 0.91 0.92 1.06 1.27 1.40 1.55 1.76 2.03 2.30 2.51
0.56 0.61 0.71 0.83 0.92 0.96 0.96 1.00 1.00 1.06 1.21 1.35 1.43 1.60 1.52 1.42 1.46 1.53 1.62 1.58 1.38 1.22 1.23 1.09 0.98 0.92 0.95 1.05 1.02 0.89 0.82 0.74 0.70 0.68 0.66 0.69 0.77 0.89 1.04 1.24 1.48 1.68 1.84
0.54 0.57 0.66 0.77 0.90 1.01 1.04 1.03 1.04 1.13 1.27 1.35 1.49 1.58 1.51 1.48 1.50 1.50 1.61 1.70 1.64 1.44 1.26 1.18 1.07 0.95 0.92 0.90 0.88 0.86 0.84 0.74 0.65 0.60 0.56 0.54 0.57 0.60 0.69 0.84 1.00 1.16 1.26
0.50 0.55 0.62 0.70 0.72 0.79 0.85 0.86 0.94 1.06 1.22 1.28 1.29 1.36 1.42 1.45 1.58 1.54 1.60 1.68 1.73 1.63 1.34 1.26 1.18 0.97 1.02 0.80 0.78 0.81 0.82 0.72 0.57 0.51 0.49 0.49 0.51 0.54 0.56 0.61 0.71 0.84 0.98
0.44 0.49 0.54 0.55 0.56 0.57 0.59 0.65 0.76 0.90 0.98 0.99 0.97 1.02 1.07 1.16 1.30 1.34 1.42 1.49 1.61 1.66 1.40 1.35 1.48 1.36 1.32 1.10 0.93 0.86 0.72 0.68 0.61 0.51 0.45 0.43 0.44 0.48 0.54 0.56 0.57 0.62 0.73
0.38 0.42 0.44 0.45 0.45 0.47 0.54 0.61 0.68 0.76 0.84 0.83 0.83 0.85 0.82 0.91 1.07 1.13 1.22 1.33 1.50 1.69 1.54 1.46 1.61 1.65 1.56 1.37 1.24 1.06 0.79 0.64 0.67 0.63 0.48 0.42 0.41 0.44 0.51 0.55 0.52 0.52 0.57
0.32 0.35 0.39 0.43 0.47 0.54 0.65 0.75 0.82 0.79 0.71 0.65 0.61 0.60 0.60 0.68 0.81 0.93 1.08 1.14 1.26 1.57 1.64 1.52 1.56 1.80 1.79 1.61 1.57 1.31 1.12 1.01 0.75 0.69 0.56 0.46 0.43 0.43 0.48 0.56 0.57 0.54 0.52
0.35 0.41 0.46 0.53 0.61 0.64 0.67 0.72 0.74 0.77 0.72 0.61 0.50 0.43 0.42 0.52 0.65 0.77 0.88 0.99 1.10 1.27 1.47 1.54 1.54 1.76 1.86 1.76 1.85 1.65 1.41 1.25 1.02 0.80 0.71 0.53 0.47 0.49 0.49 0.52 0.57 0.60 0.61
0.30 0.43 0.52 0.57 0.66 0.64 0.58 0.58 0.58 0.54 0.55 0.55 0.50 0.40 0.36 0.39 0.46 0.57 0.63 0.76 0.91 1.06 1.18 1.36 1.48 1.64 1.86 1.87 1.75 1.73 1.56 1.40 1.30 1.18 1.14 0.82 0.55 0.48 0.47 0.50 0.56 0.64 0.71
0.28 0.37 0.40 0.45 0.51 0.46 0.39 0.37 0.39 0.41 0.43 0.46 0.47 0.43 0.38 0.33 0.33 0.38 0.44 0.51 0.60 0.72 0.90 1.11 1.25 1.39 1.62 1.82 1.80 1.83 1.74 1.51 1.40 1.33 1.39 1.40 1.08 0.82 0.66 0.47 0.47 0.56 0.70
0.34 0.39 0.38 0.38 0.41 0.45 0.36 0.31 0.28 0.30 0.36 0.40 0.43 0.43 0.33 0.27 0.29 0.29 0.31 0.35 0.42 0.43 0.52 0.74 0.91 0.97 1.14 1.42 1.72 1.86 1.93 1.78 1.59 1.56 1.57 1.69 1.77 1.51 1.03 0.71 0.61 0.54 0.62
0.48 0.51 0.44 0.41 0.43 0.42 0.35 0.27 0.24 0.24 0.31 0.37 0.41 0.39 0.36 0.32 0.32 0.35 0.38 0.38 0.35 0.33 0.34 0.39 0.50 0.69 0.84 1.08 1.44 1.65 1.89 2.06 1.95 1.86 1.81 1.90 1.99 2.20 1.76 1.20 0.96 0.75 0.70
0.53 0.54 0.48 0.45 0.46 0.44 0.36 0.27 0.26 0.32 0.37 0.39 0.42 0.40 0.38 0.37 0.32 0.27 0.34 0.39 0.34 0.33 0.30 0.33 0.38 0.53 0.71 0.85 1.13 1.47 1.72 1.83 1.91 1.99 1.98 2.04 2.04 2.17 2.50 2.09 1.41 1.00 0.79
0.55 0.52 0.50 0.53 0.55 0.54 0.43 0.30 0.27 0.33 0.41 0.45 0.54 0.53 0.40 0.32 0.30 0.26 0.29 0.35 0.34 0.32 0.34 0.33 0.37 0.43 0.51 0.65 0.85 1.11 1.32 1.49 1.54 1.69 1.65 1.59 1.63 1.76 2.22 2.53 2.19 1.57 1.11